EW4077 Weather Reports


Display with metric or nautical units.
time (UTC)temp
F
wind
direction
speed
MPH
gust
MPH
rain 1hr
in
rain 24hr
in
rain mn
in
humidity
%
barometer
mb
20260903113052 68 269 3.0 4.0 0.00 0.00 0.00 85 1013.7
20260903111527 68 259 3.0 5.0 0.00 0.00 0.00 85 1013.7
20260903110025 69 255 1.0 4.0 0.00 0.00 0.00 85 1013.7
20260903104540 69 252 0.0 1.0 0.00 0.00 0.00 86 1013.7
20260903103031 69 136 1.0 3.0 0.00 0.00 0.00 86 1013.8
20260903101527 69 149 2.0 4.0 0.00 0.00 0.00 86 1013.8
20260903100031 69 130 2.0 4.0 0.00 0.00 0.00 86 1013.8
20260903094540 69 176 2.0 5.0 0.00 0.00 0.00 86 1013.9
20260903093019 69 282 0.0 2.0 0.00 0.00 0.00 84 1014.0
20260903091517 69 268 1.0 4.0 0.00 0.00 0.00 83 1014.1
20260903090015 69 259 2.0 5.0 0.00 0.00 0.00 83 1014.2
20260903084513 69 252 1.0 4.0 0.00 0.00 0.00 82 1014.4
20260903083012 68 250 0.0 3.0 0.00 0.00 0.00 83 1014.4
20260903081513 69 221 2.0 4.0 0.00 0.00 0.00 84 1014.4
20260903080010 69 213 1.0 4.0 0.00 0.00 0.00 83 1014.5
20260903074508 68 151 1.0 3.0 0.00 0.00 0.00 82 1014.5
20260903073007 68 179 2.0 4.0 0.00 0.00 0.00 84 1014.6
20260903071507 69 217 0.0 1.0 0.00 0.00 0.00 86 1014.5
20260903070004 69 210 0.0 1.0 0.00 0.00 0.00 85 1014.5
20260903064502 69 241 1.0 3.0 0.00 0.00 0.00 85 1014.5
20260903063001 69 257 2.0 4.0 0.00 0.00 0.00 85 1014.4
20260903061501 70 217 1.0 4.0 0.00 0.00 0.00 84 1014.3
20260903060105 70 244 5.0 8.0 0.00 0.00 0.00 83 1014.3
20260903054600 69 232 5.0 9.0 0.00 0.00 0.00 83 1014.3
20260903053100 69 227 2.0 6.0 0.00 0.00 0.00 82 1014.3
20260903051613 70 199 2.0 8.0 0.00 0.00 0.00 82 1014.3
20260903050059 70 240 2.0 9.0 0.00 0.00 0.00 81 1014.3
20260903044600 70 211 3.0 9.0 0.00 0.00 0.00 81 1014.2
20260903043147 70 227 3.0 9.0 0.00 0.00 0.00 78 1014.3
20260903041554 70 257 2.0 5.0 0.00 0.00 0.00 76 1014.3
20260903040055 70 242 0.0 2.0 0.00 0.00 0.00 75 1014.3
20260903034553 70 30 0.0 2.0 0.00 0.00 0.00 75 1014.0
20260903033055 70 286 0.0 8.0 0.00 0.00 0.00 75 1013.9
20260903031558 70 248 5.0 0.0 0.00 0.00 0.00 77 1013.9
20260903030053 70 254 3.0 9.0 0.00 0.00 0.00 76 1013.8
20260903024551 70 258 7.0 12.0 0.00 0.00 0.00 73 1013.7
20260903023050 70 252 5.0 10.0 0.00 0.00 0.00 72 1013.6
20260903021549 70 206 4.0 13.0 0.00 0.00 0.00 73 1013.6
20260903020048 71 257 7.0 11.0 0.00 0.00 0.00 71 1013.5
20260903014551 71 255 6.0 12.0 0.00 0.00 0.00 72 1013.4
20260903013102 71 262 8.0 15.0 0.00 0.00 0.00 71 1013.5
20260903011546 71 246 9.0 14.0 0.00 0.00 0.00 72 1013.5
20260903010048 72 266 8.0 14.0 0.00 0.00 0.00 71 1013.5
20260903004544 71 264 9.0 20.0 0.00 0.00 0.00 73 1013.3
20260903003048 71 236 15.0 20.0 0.00 0.00 0.00 74 1013.2
20260903001542 72 254 11.0 20.0 0.00 0.00 0.00 76 1013.3
20260903000039 72 254 13.0 19.0 0.00 0.00 0.00 76 1013.3
20260902234535 72 246 13.0 20.0 0.00 0.00 0.00 75 1013.4
20260902233035 72 217 13.0 21.0 0.00 0.00 0.00 75 1013.5
20260902231534 72 245 15.0 20.0 0.00 0.00 0.00 76 1013.6
20260902230028 72 235 13.0 18.0 0.00 0.00 0.00 73 1013.8
20260902224626 72 245 13.0 19.0 0.00 0.00 0.00 71 1013.8
20260902223027 72 228 12.0 18.0 0.00 0.00 0.00 69 1014.2
20260902221520 72 236 12.0 17.0 0.00 0.00 0.00 66 1014.4
20260902220017 73 225 8.0 14.0 0.00 0.00 0.00 71 1014.6
20260902214513 73 206 6.0 13.0 0.00 0.00 0.00 71 1014.9
20260902213010 73 205 6.0 11.0 0.00 0.00 0.00 71 1015.1
20260902211511 73 202 6.0 11.0 0.00 0.00 0.00 70 1015.2
20260902210007 73 207 5.0 11.0 0.00 0.00 0.00 70 1015.4
20260902204512 73 175 5.0 11.0 0.00 0.00 0.00 70 1015.3
20260902203008 73 234 4.0 10.0 0.00 0.00 0.00 69 1015.4
20260902201506 73 161 7.0 10.0 0.00 0.00 0.00 71 1015.5
20260902200004 73 187 6.0 9.0 0.00 0.00 0.00 72 1015.7
20260902194506 74 156 4.0 7.0 0.00 0.00 0.00 70 1015.8
20260902193003 74 229 4.0 7.0 0.00 0.00 0.00 69 1016.0
20260902191501 74 163 1.0 7.0 0.00 0.00 0.00 69 1016.2
20260902190104 73 148 1.0 4.0 0.00 0.00 0.00 70 1016.2
20260902184557 72 290 1.0 3.0 0.00 0.00 0.00 71 1016.3
20260902183106 73 246 1.0 3.0 0.00 0.00 0.00 72 1016.4
20260902181555 73 113 0.0 3.0 0.00 0.00 0.00 71 1016.3
20260902180052 72 151 0.0 3.0 0.00 0.00 0.00 74 1016.5
20260902174551 72 193 1.0 4.0 0.00 0.00 0.00 73 1016.5
20260902173025 72 101 2.0 4.0 0.00 0.00 0.00 71 1016.3
20260902171535 72 190 1.0 5.0 0.00 0.00 0.00 72 1016.2
20260902164559 72 136 2.0 6.0 0.00 0.00 0.00 73 1016.1
20260902164518 72 138 3.0 6.0 0.00 0.00 0.00 73 1016.1
20260902161541 71 185 1.0 3.0 0.00 0.00 0.00 75 1016.1
20260902160125 70 161 1.0 3.0 0.00 0.00 0.00 76 1016.0
20260902154552 71 167 1.0 4.0 0.00 0.00 0.00 78 1015.8
20260902153101 69 149 2.0 3.0 0.00 0.00 0.00 79 1015.9
20260902151507 68 173 0.0 0.0 0.00 0.00 0.00 82 1015.8
20260902150017 68 284 0.0 0.0 0.00 0.00 0.00 84 1015.8
20260902144511 68 286 0.0 0.0 0.00 0.00 0.00 84 1015.8
20260902143030 67 286 0.0 0.0 0.00 0.00 0.00 86 1015.6
20260902141536 65 286 0.0 0.0 0.00 0.00 0.00 88 1015.5
20260902140145 65 278 0.0 0.0 0.00 0.00 0.00 88 1015.4
20260902134614 64 278 0.0 0.0 0.00 0.00 0.00 88 1015.2
20260902133013 64 298 0.0 0.0 0.00 0.00 0.00 88 1015.0
20260902131521 64 298 0.0 0.0 0.00 0.00 0.00 88 1015.1
20260902130013 64 298 0.0 0.0 0.00 0.00 0.00 88 1015.0
20260902124510 64 317 1.0 3.0 0.00 0.00 0.00 88 1015.0
20260902123009 64 313 0.0 0.0 0.00 0.00 0.00 88 1015.0
20260902121507 64 294 0.0 0.0 0.00 0.00 0.00 88 1015.1
20260902120008 65 301 0.0 0.0 0.00 0.00 0.00 87 1015.0
20260902114514 65 294 0.0 0.0 0.00 0.00 0.00 88 1015.1